KC7NGC-B Weather Reports


time (UTC)temp
C
wind
direction
speed
KPH
gust
KPH
rain 1hr
cm
rain 24hr
cm
rain mn
cm
humidity
%
barometer
mb
20260904154630 13 12 6.4 6.4 0.00 0.00 0.00 1 1015.3
20260904153626 13 7 3.2 4.8 0.00 0.00 0.00 1 1015.3
20260904152622 13 5 4.8 6.4 0.00 0.00 0.00 1 1015.3
20260904151619 12 41 3.2 6.4 0.00 0.00 0.00 1 1015.1
20260904150635 12 322 3.2 6.4 0.00 0.00 0.00 1 1014.9
20260904145631 12 346 3.2 6.4 0.00 0.00 0.00 1 1014.7
20260904144627 11 40 1.6 3.2 0.00 0.00 0.00 1 1014.8
20260904143623 11 359 4.8 6.4 0.00 0.00 0.00 1 1014.6
20260904142640 12 341 3.2 4.8 0.00 0.00 0.00 1 1014.5
20260904141716 11 212 1.6 3.2 0.00 0.00 0.00 1 1014.4
20260904140632 11 279 3.2 3.2 0.00 0.00 0.00 1 1014.2
20260904135628 11 311 3.2 3.2 0.00 0.00 0.00 1 1013.9
20260904134624 10 310 1.6 3.2 0.00 0.00 0.00 1 1013.8
20260904133620 10 283 1.6 3.2 0.00 0.00 0.00 1 1013.7
20260904132617 10 253 1.6 3.2 0.00 0.00 0.00 1 1013.5
20260904131634 10 316 4.8 6.4 0.00 0.00 0.00 1 1013.5
20260904130629 10 292 4.8 6.4 0.00 0.00 0.00 1 1013.5
20260904125624 11 270 3.2 4.8 0.00 0.00 0.00 1 1013.4
20260904124701 11 198 3.2 4.8 0.00 0.00 0.00 1 1013.4
20260904123616 10 251 3.2 4.8 0.00 0.00 0.00 1 1013.4
20260904122633 11 190 6.4 8.0 0.00 0.00 0.00 1 1013.3
20260904121709 11 297 1.6 4.8 0.00 0.00 0.00 1 1013.2
20260904120625 11 39 1.6 3.2 0.00 0.00 0.00 1 1013.1
20260904115622 11 181 1.6 3.2 0.00 0.00 0.00 1 1013.0
20260904114618 10 204 6.4 9.7 0.00 0.00 0.00 1 1013.0
20260904113635 10 281 3.2 4.8 0.00 0.00 0.00 1 1012.7
20260904112631 10 351 3.2 6.4 0.00 0.00 0.00 1 1012.8
20260904111627 10 272 1.6 1.6 0.00 0.00 0.00 1 1012.8
20260904110623 10 327 0.0 3.2 0.00 0.00 0.00 1 1012.7
20260904105632 11 316 4.8 6.4 0.00 0.00 0.00 1 1012.6
20260904104628 10 0.0 1.6 0.00 0.00 0.00 1 1012.5
20260904103624 10 293 4.8 4.8 0.00 0.00 0.00 1 1012.2
20260904102620 10 237 3.2 4.8 0.00 0.00 0.00 1 1012.1
20260904101616 10 239 3.2 6.4 0.00 0.00 0.00 1 1012.0
20260904100633 10 274 1.6 3.2 0.00 0.00 0.00 1 1011.8
20260904095629 11 0.0 1.6 0.00 0.00 0.00 1 1011.8
20260904094625 11 291 3.2 3.2 0.00 0.00 0.00 1 1011.8
20260904093621 11 0.0 0.0 0.00 0.00 0.00 1 1011.6
20260904092617 11 214 1.6 3.2 0.00 0.00 0.00 1 1011.5
20260904091633 11 0.0 0.0 0.00 0.00 0.00 1 1011.6
20260904090629 11 244 1.6 1.6 0.00 0.00 0.00 1 1011.4
20260904085625 11 332 3.2 4.8 0.00 0.00 0.00 1 1011.6
20260904084641 12 333 1.6 3.2 0.00 0.00 0.00 1 1011.6
20260904083617 12 300 3.2 3.2 0.00 0.00 0.00 1 1011.6
20260904082633 13 0.0 1.6 0.00 0.00 0.00 1 1011.4
20260904081629 13 92 0.0 1.6 0.00 0.00 0.00 1 1011.5
20260904080625 13 220 0.0 1.6 0.00 0.00 0.00 1 1011.5
20260904075621 13 174 4.8 8.0 0.00 0.00 0.00 1 1011.5
20260904074617 13 0.0 4.8 0.00 0.00 0.00 1 1011.6
20260904073633 13 0.0 1.6 0.00 0.00 0.00 1 1011.6
20260904072629 13 229 3.2 3.2 0.00 0.00 0.00 1 1011.7
20260904071626 14 3 3.2 3.2 0.00 0.00 0.00 1 1011.7
20260904070641 15 189 3.2 4.8 0.00 0.00 0.00 1 1011.6
20260904065617 15 175 4.8 8.0 0.00 0.00 0.00 1 1011.5
20260904064634 15 187 6.4 9.7 0.00 0.00 0.00 1 1011.5
20260904063630 15 167 11.3 20.9 0.00 0.00 0.00 1 1011.2
20260904062626 15 175 11.3 14.5 0.00 0.00 0.00 1 1011.3
20260904061622 15 179 8.0 9.7 0.00 0.00 0.00 1 1011.4
20260904060619 15 317 3.2 4.8 0.00 0.03 0.00 1 1011.4
20260904055635 15 295 3.2 3.2 0.00 0.03 0.00 1 1011.2
20260904054631 15 340 3.2 3.2 0.00 0.03 0.00 1 1011.2
20260904053627 15 189 3.2 4.8 0.00 0.03 0.00 1 1011.1
20260904052623 15 245 1.6 3.2 0.00 0.03 0.00 1 1011.1
20260904051619 15 193 3.2 4.8 0.00 0.03 0.00 1 1011.1
20260904050636 15 178 1.6 3.2 0.00 0.03 0.00 1 1011.0
20260904045652 15 182 1.6 6.4 0.00 0.03 0.00 1 1011.1
20260904044628 16 153 4.8 6.4 0.00 0.03 0.00 1 1010.9
20260904043624 16 183 4.8 6.4 0.00 0.03 0.00 1 1011.0
20260904042640 17 167 3.2 4.8 0.00 0.03 0.00 1 1011.0
20260904041617 17 172 4.8 9.7 0.00 0.05 0.00 1 1010.8
20260904040633 17 144 1.6 4.8 0.00 0.05 0.00 1 1010.7
20260904035629 17 162 4.8 12.9 0.00 0.05 0.00 1 1010.5
20260904034625 17 161 8.0 12.9 0.00 0.05 0.00 1 1010.4
20260904033641 17 181 6.4 8.0 0.00 0.05 0.00 1 1010.6
20260904032617 17 188 8.0 9.7 0.00 0.05 0.00 1 1010.4
20260904031633 17 166 3.2 4.8 0.00 0.05 0.00 1 1010.4
20260904030629 17 177 3.2 4.8 0.00 0.05 0.00 1 1010.2
20260904025625 18 183 4.8 6.4 0.00 0.05 0.00 1 1010.2
20260904024621 17 186 1.6 3.2 0.00 0.05 0.00 1 1010.1
20260904023618 17 177 3.2 4.8 0.00 0.05 0.00 1 1009.9
20260904022654 17 189 4.8 6.4 0.00 0.05 0.00 1 1009.8
20260904021629 17 164 1.6 3.2 0.00 0.05 0.00 1 1010.0
20260904020625 17 186 3.2 4.8 0.00 0.05 0.00 1 1010.0
20260904015621 18 118 1.6 3.2 0.00 0.05 0.00 1 1010.1
20260904014617 18 108 1.6 4.8 0.00 0.05 0.00 1 1010.1
20260904013653 18 178 4.8 6.4 0.00 0.05 0.00 1 1010.3
20260904012630 18 181 1.6 4.8 0.00 0.05 0.00 1 1010.3
20260904011625 18 204 4.8 6.4 0.00 0.05 0.00 1 1010.3
20260904010622 18 207 6.4 9.7 0.00 0.05 0.00 1 1010.2
20260904005618 18 180 4.8 6.4 0.00 0.05 0.00 1 1010.2
20260904004634 18 222 8.0 8.0 0.00 0.05 0.00 1 1010.2
20260904003630 18 169 6.4 6.4 0.00 0.05 0.00 1 1010.4
20260904002627 18 170 6.4 8.0 0.00 0.05 0.00 1 1010.4
20260904001622 18 198 6.4 6.4 0.00 0.05 0.00 1 1010.7
20260904000619 18 174 9.7 12.9 0.00 0.05 0.00 1 1010.7
20260903235655 18 203 4.8 6.4 0.00 0.05 0.00 1 1010.8
20260903234651 18 192 4.8 6.4 0.00 0.05 0.00 1 1010.7
20260903233626 18 194 8.0 14.5 0.00 0.05 0.00 1 1010.7
20260903232623 19 185 9.7 14.5 0.00 0.05 0.00 1 1010.7
20260903231639 20 214 6.4 8.0 0.00 0.05 0.00 1 1010.9
20260903230635 20 184 8.0 12.9 0.00 0.05 0.00 1 1010.9
20260903225631 20 194 4.8 8.0 0.00 0.05 0.00 1 1011.0
20260903224707 20 172 4.8 8.0 0.00 0.05 0.00 1 1011.2
20260903223623 20 200 6.4 12.9 0.00 0.05 0.00 1 1011.2
20260903222620 19 230 3.2 6.4 0.00 0.05 0.00 1 1011.4
20260903221656 18 176 9.7 14.5 0.00 0.05 0.00 1 1011.5
20260903220652 19 177 9.7 11.3 0.00 0.05 0.00 1 1011.4
20260903215628 18 215 4.8 8.0 0.00 0.05 0.00 1 1011.4
20260903214624 19 213 4.8 12.9 0.00 0.05 0.00 1 1011.6
20260903213620 18 274 6.4 11.3 0.00 0.05 0.00 1 1011.6
20260903212621 18 208 9.7 17.7 0.00 0.05 0.00 1 1012.0
20260903211652 18 199 6.4 9.7 0.00 0.05 0.00 1 1012.0
20260903210628 18 237 11.3 17.7 0.00 0.05 0.00 1 1011.7
20260903205625 18 214 11.3 16.1 0.00 0.05 0.00 1 1012.0
20260903204641 18 277 9.7 16.1 0.00 0.05 0.00 1 1011.8
20260903203617 18 212 16.1 20.9 0.00 0.05 0.00 1 1012.1
20260903202633 18 217 8.0 12.9 0.00 0.05 0.00 1 1012.1
20260903201629 18 168 4.8 6.4 0.00 0.05 0.00 1 1012.2
20260903200630 18 212 6.4 9.7 0.00 0.05 0.00 1 1012.4
20260903195622 17 173 8.0 9.7 0.00 0.05 0.00 1 1012.3
20260903194617 17 217 4.8 8.0 0.00 0.05 0.00 1 1012.5
20260903193633 17 189 6.4 11.3 0.00 0.05 0.00 1 1012.5
20260903192629 17 228 6.4 12.9 0.00 0.05 0.00 1 1012.7
20260903191625 17 234 6.4 9.7 0.00 0.05 0.00 1 1012.7
20260903190642 17 190 6.4 9.7 0.00 0.05 0.00 1 1012.9
20260903185618 17 184 8.0 12.9 0.00 0.05 0.00 1 1013.0
20260903184634 17 193 4.8 8.0 0.00 0.05 0.00 1 1012.8
20260903183711 17 186 6.4 8.0 0.00 0.05 0.00 1 1013.0
20260903182626 17 208 11.3 17.7 0.00 0.05 0.00 1 1012.9
20260903181642 17 198 8.0 12.9 0.00 0.05 0.00 1 1012.9
20260903180619 17 194 6.4 11.3 0.00 0.05 0.00 1 1012.9
20260903175655 16 203 9.7 16.1 0.00 0.05 0.00 1 1012.9
20260903174631 16 207 6.4 9.7 0.00 0.05 0.00 1 1012.9
20260903173647 16 212 8.0 12.9 0.00 0.05 0.00 1 1013.0
20260903172622 16 207 4.8 9.7 0.00 0.05 0.00 1 1012.8
20260903171621 16 217 16.1 17.7 0.00 0.05 0.00 1 1012.9
20260903170635 16 233 9.7 16.1 0.00 0.05 0.00 1 1012.9
20260903165630 16 225 8.0 9.7 0.00 0.05 0.00 1 1013.0
20260903164626 16 162 4.8 6.4 0.00 0.05 0.00 1 1013.0
20260903163703 15 215 3.2 4.8 0.00 0.05 0.00 1 1013.0
20260903162618 15 191 8.0 14.5 0.00 0.05 0.00 1 1013.0
20260903161635 15 166 6.4 9.7 0.00 0.05 0.00 1 1013.1
20260903160631 15 178 6.4 9.7 0.00 0.05 0.00 1 1013.0
20260903155627 15 228 8.0 16.1 0.00 0.05 0.00 1 1012.8